Flag for U.S.A. Weather past 2 weeks in Modesto, California, U.S.A.

Now
51 °F

Clear.


Feels Like: 48 °F
Forecast: 49 / 61 °F
Wind: 8 mph from Southeast

Location: Modesto City-County-Sham Field

Current Time: Jan 27, 2015 at 1:12:53 AM

Latest Report: Jan 27, 2015 at 12:53 AM


Visibility: 6 mi

Pressure: 30.03 "Hg

Humidity: 80%

Dew point: 45 °F

Location of ModestoLocation

Historic Weather in Modesto — Graph

°F

Modesto temperature yesterday

Maximum temperature yesterday: 57 °F (at 2:53 PM)
Minimum temperature yesterday: 35 °F (at 6:01 AM)
Average temperature yesterday: 46 °F

Past Weeks' High & Low Weather Summary

 TemperatureHumidityPressure
High63 °F (Jan 12, 2:53 PM)100% (Jan 23, 8:53 AM)30.40 "Hg (Jan 23, 8:53 AM)
Low34 °F (Jan 23, 3:53 AM)58% (Jan 12, 2:53 PM)30.00 "Hg (Jan 26, 2:53 PM)
Average47 °F89%30.22 "Hg
* Reported Jan 11 11:53 PM — Jan 26 11:53 PM, Modesto, Weather by CustomWeather, © 2014

Note: Actual official high and low records may vary slightly from our data, if they occured in-between our weather recording intervals... More about our weather records

Advertising

Modesto weather history for previous 24 hours

 ConditionsComfort  
Time TempWeatherWind HumidityBarometerVisibility
11:53 PM
Jan 26
49 °FFog.7 mph90%30.01 "Hg4 mi
10:53 PM47 °FFog.6 mph90%30.01 "Hg4 mi
9:53 PM46 °FFog.7 mph89%30.00 "Hg5 mi
8:53 PM49 °FFog.No wind86%30.00 "Hg6 mi
7:53 PM49 °FFog.5 mph86%30.02 "Hg6 mi
6:53 PM53 °FClear.5 mph77%30.01 "Hg7 mi
5:53 PM54 °FClear.3 mph72%30.01 "Hg8 mi
4:53 PM54 °FSunny.3 mph74%30.01 "Hg7 mi
3:53 PM55 °FSunny.7 mph72%30.00 "Hg7 mi
2:53 PM57 °FSunny.3 mph62%30.00 "Hg8 mi
1:53 PM56 °FSunny.No wind65%30.01 "Hg8 mi
12:53 PM53 °FSunny.3 mph72%30.02 "Hg8 mi
12:03 PM49 °FScattered clouds.6 mph80%30.05 "Hg7 mi
11:00 AM44 °FFog.8 mph93%30.08 "Hg3 mi
9:53 AM41 °FFog.7 mph96%30.09 "Hg0 mi
8:53 AM40 °FFog.3 mph97%30.08 "Hg0 mi
7:53 AM38 °FFog.5 mph100%30.07 "Hg0 mi
6:53 AM38 °FFog.7 mph97%30.06 "Hg0 mi
6:01 AM35 °FFog.No wind96%30.05 "Hg1 mi
4:53 AM37 °FFog.No wind96%30.06 "Hg0 mi
3:53 AM38 °FFog.3 mph97%30.07 "Hg0 mi
2:53 AM39 °FFog.3 mph96%30.09 "Hg0 mi
1:53 AM39 °FFog.7 mph96%30.09 "Hg1 mi
Weather by CustomWeather, © 2014

See weather overviewHow to use our weather pages